格洛纳斯-764 COSMOS 2296 [GLONASS]

导读

COSMOS 2296(宇宙2296)是苏联解体后独立国家联合体(CIS)发射的GLONASS(格洛纳斯)第一代导航卫星。该卫星于1994年11月20日发射入轨,属于全球卫星导航系统星座组网卫星,运行在约19100公里高度的中圆地球轨道,轨道倾角64.8度,运行周期约11小时15分钟,为全球用户提供全天候导航定位服务。卫星采用三轴稳定设计,携带精密铯原子钟,设计工作寿命约5年,是格洛纳斯系统完成24颗全星座组网过程中的重要卫星。

基本信息
目录编号:
23397
目录名称:
COSMOS 2296 (GLONASS)
国际标识:
1994-076B
轨道中心:
EARTH
卫星名称:
格洛纳斯-764
卫星全名:
格洛纳斯-764 COSMOS 2296 [GLONASS]
卫星状态:
在轨 (已飞行11531 天)
发射日期:
1994-11-20 UTC
国别 :
俄罗斯(独联体) (CIS)
星等 :
--
轨道信息
数据来源 国际轨道数据 AOE轨道数据
星历时间 2026-06-13T13:11:40+0800
3天前
查看轨道信息
2026-06-14T03:00:00+0800
2天前
查看轨道信息
半长轴 25508.24km 25508.24km
偏心率 0.0010139 0.0010026
轨道倾角 64.840° 64.841°
近地点辐角 258.849° 259.106°
升交点赤经 69.116° 69.096°
平近点角 239.569° 320.605°
近地点 19104.24km 19104.528km
远地点 19155.966km 19155.678km
周期 675.741分钟 675.741分钟
每日圈数 2.130993 2.130993
详细信息
平衡模式:
三轴稳定
覆盖范围:
全球
运营商:
列舍特涅夫卫星信息系统
运营商所在国:
俄罗斯
制造商(研发单位):
列舍特涅夫卫星信息系统
制造商所在国:
俄罗斯
使用方式:
暂无
卫星简介
格洛纳斯(GLONASS )是苏联/俄罗斯研制卫星导航系统。标准配置为24颗卫星,其中18颗卫星就能保证该系统为俄罗斯境内用户提供全部服务。该卫星已退役。
2D轨道图
3D轨道图
轨道高度分析图
轨道倾角分析图
轨道综合分析图
查看轨道综合分析图